SCP
1 1 1 1 2 1 1 1 1 1 1 1 1 1 1 1 1 1 1 1 1 1 1 2 2 2 2 2 2 2 2 1 1 1 1 1 1 1 1 1 1 1 1
1 1 1 1 2 2 2 1 1 1 1 1 1 1 1 1 1 2 2 2 2 1 2 2 2 2 2 2 2 2 2 2 2 2 1 1 1 1 1 1 1 1 1
1 1 1 1 2 2 2 2 2 1 1 1 2 2 2 2 2 2 3 3 2 2 2 2 2 2 3 3 3 3 2 2 2 2 2 2 1 1 1 1 1 1 1
1 1 1 1 2 2 2 2 2 2 2 2 2 3 3 3 4 4 3 3 3 2 2 2 2 3 3 4 4 3 3 3 2 2 2 2 2 1 1 1 1 1 1
1 1 1 1 2 2 2 2 2 3 3 3 3 3 4 4 4 4 4 3 3 2 2 2 2 3 3 4 3 3 3 3 2 2 2 2 2 2 1 1 1 1 1
1 1 1 1 1 2 2 2 3 4 4 4 4 4 4 4 5 5 5 4 3 2 2 2 2 2 2 3 2 2 2 2 2 2 2 2 2 2 1 1 1 1 1
1 1 1 1 2 2 3 3 4 5 5 5 6 6 6 5 6 6 6 5 3 2 2 2 2 2 2 2 2 2 2 2 2 2 2 2 2 1 1 1 1 1 1
1 1 1 2 2 2 3 4 5 5 5 6 6 6 7 7 7 7 7 5 3 2 2 2 2 2 2 2 2 2 2 2 2 2 2 2 2 1 1 1 1 1 1
1 2 2 2 3 3 3 4 4 5 5 5 5 6 6 6 6 6 6 5 3 2 1 2 2 2 2 2 2 2 2 2 2 2 2 2 2 1 1 1 1 1 1
2 3 3 3 3 3 3 3 3 4 5 5 5 5 6 6 5 5 4 4 3 2 1 1 2 2 3 3 3 3 2 2 2 2 2 2 2 1 1 1 1 1 1
3 3 4 4 4 3 3 3 3 3 4 5 5 5 6 6 5 5 4 4 3 2 2 2 2 2 3 3 3 3 3 3 2 2 1 1 1 1 1 1 1 1 1
3 3 3 3 3 2 2 3 3 3 3 4 4 5 5 6 6 5 4 3 3 2 2 2 2 2 3 3 3 2 2 2 2 2 1 1 1 1 1 1 1 1 1
3 3 3 3 2 2 2 3 3 3 3 3 3 4 5 5 5 5 4 3 2 2 2 2 2 2 2 2 2 2 2 2 1 1 1 1 1 1 1 1 1 1 1
3 3 4 4 3 2 2 2 3 3 3 3 3 3 4 4 5 5 4 3 2 2 2 1 2 2 2 2 2 2 2 1 1 1 1 1 1 1 1 1 1 1 1
3 3 4 4 4 4 3 3 3 3 4 3 3 3 3 4 4 4 4 4 3 2 1 1 2 2 2 2 2 2 2 2 1 1 1 1 1 1 1 1 1 1 1
4 4 4 4 5 5 5 4 3 4 4 4 4 4 3 3 3 3 3 3 3 2 2 2 2 2 2 2 2 2 3 2 1 1 0 0 0 1 0 0 0 0 0
4 4 4 4 6 7 7 6 4 4 5 5 5 5 4 3 3 3 3 3 3 3 2 2 2 2 2 2 2 2 3 2 2 1 1 0 0 0 0 0 0 0 0
5 5 5 5 6 8 8 8 6 5 5 5 6 6 5 4 3 3 2 2 3 3 2 2 2 2 2 2 2 3 2 2 2 1 1 1 0 0 0 0 0 0 0
6 6 6 6 7 8 9 9 8 7 6 5 6 6 6 5 4 4 3 3 2 3 3 2 2 2 3 3 3 3 2 2 1 1 1 1 0 0 0 0 0 0 0
7 7 8 8 9 10 11 11 11 10 8 7 6 6 6 6 6 5 4 3 3 3 3 3 2 2 3 4 4 3 3 2 2 1 1 1 1 1 0 0 0 0 0
9 9 10 11 12 12 12 11 11 11 10 8 6 6 6 7 6 6 5 4 3 3 3 3 2 2 3 4 4 4 3 3 3 3 2 2 1 1 1 1 0 0 0
10 11 12 13 13 11 9 8 8 10 10 7 6 6 6 6 6 6 5 4 3 3 3 3 3 3 3 3 3 3 3 4 3 3 3 2 2 2 2 1 1 1 0
10 11 12 11 10 8 6 4 5 8 9 8 6 5 6 5 5 5 5 4 3 2 2 2 3 3 4 3 3 3 3 3 2 2 2 2 2 2 2 2 2 1 1
9 9 9 9 8 7 6 4 4 7 10 10 8 6 6 5 5 5 6 6 5 3 2 2 2 3 3 3 3 3 2 2 2 2 2 2 2 2 3 3 3 2 1
7 7 8 8 8 7 5 3 4 7 10 11 9 7 6 6 5 4 5 6 6 5 3 3 3 3 3 2 2 3 2 2 2 2 2 2 2 2 3 3 3 3 2
7 7 8 8 8 7 5 3 4 8 10 11 10 8 6 6 5 4 5 6 6 5 4 3 3 2 2 2 2 2 2 2 2 2 2 3 3 3 3 3 4 3 3
Wind_Speed
3 3 2 2 2 2 3 2 2 2 2 1 1 2 2 2 4 5 5 11 11 10 9 9 8 8 7 7 7 7 7 8 7 7 7 8 8 8 8 7 7 7 7
3 2 2 1 1 1 2 1 2 2 2 1 1 1 2 1 3 5 6 7 10 10 9 9 8 8 7 7 7 7 7 8 8 8 8 9 9 8 8 8 8 8 7
3 2 2 2 1 1 2 1 1 1 2 2 2 2 2 2 2 3 5 5 6 9 10 9 9 8 8 8 7 7 7 7 8 8 9 9 9 9 9 8 8 8 7
3 2 2 2 2 2 1 2 1 1 1 1 1 1 2 2 3 4 4 5 5 6 9 11 10 9 8 8 7 7 7 7 7 8 8 9 9 9 9 9 8 8 8
3 2 2 1 2 2 1 1 2 1 1 1 2 2 2 2 3 3 4 5 5 5 6 9 10 9 9 8 7 6 7 7 7 8 8 9 10 9 9 9 9 9 9
3 2 2 2 1 1 1 1 2 2 1 1 2 2 2 2 2 3 3 3 3 5 5 6 6 6 8 7 6 6 6 7 8 8 9 10 10 9 10 10 10 9 9
2 1 1 2 2 2 1 2 2 2 2 1 1 1 1 2 3 3 2 2 3 3 3 5 4 4 4 6 5 5 5 5 6 7 7 8 9 8 9 9 9 9 9
3 3 2 2 2 2 2 2 1 1 1 1 1 1 0 0 1 3 3 3 3 2 3 5 5 4 3 4 4 5 4 4 5 5 5 6 7 8 8 9 9 9 9
3 2 3 2 2 2 2 2 2 2 1 1 1 1 0 0 0 1 2 3 3 2 2 3 5 4 4 3 4 5 5 4 5 5 5 5 5 6 7 8 9 9 10
3 3 3 2 2 1 2 2 2 1 2 2 1 1 1 1 1 0 1 2 4 3 3 2 3 4 4 3 4 6 7 6 5 4 4 5 5 5 5 6 7 8 8
4 4 3 2 2 1 1 1 1 1 1 1 1 1 1 1 2 2 2 1 2 2 3 3 2 2 3 4 4 5 8 7 6 5 4 4 5 5 5 5 6 7 8
3 4 3 2 2 1 1 2 1 2 1 1 2 2 1 1 1 1 2 2 2 2 2 3 3 3 3 3 4 8 8 7 6 5 5 4 5 5 5 5 5 5 6
3 3 3 3 2 2 2 2 2 2 2 2 2 2 2 2 1 1 1 1 1 1 1 2 3 3 3 3 4 8 7 7 6 5 5 4 4 4 4 4 4 4 5
2 3 3 3 3 2 2 2 2 2 2 2 3 2 2 2 1 1 1 1 2 1 1 2 1 2 2 3 5 7 5 8 7 6 5 5 5 5 4 4 3 3 4
2 3 3 3 3 2 2 2 2 2 1 2 2 2 2 2 2 2 1 2 2 2 2 2 1 2 2 3 7 5 4 7 8 7 7 6 6 5 5 4 4 3 4
1 2 3 3 2 2 3 2 2 2 2 2 2 2 2 2 2 1 1 2 1 2 2 1 1 2 2 2 6 4 3 8 8 8 8 8 7 7 6 5 4 4 4
2 2 2 2 2 2 2 2 2 2 2 2 2 2 2 2 2 2 2 1 1 1 2 2 0 1 1 1 3 3 3 4 5 9 9 8 8 7 6 6 5 5 5
3 3 2 2 3 2 2 2 2 2 2 2 2 2 2 2 2 2 2 2 2 2 2 2 1 1 2 2 3 3 3 4 4 8 10 10 9 8 8 7 7 6 6
3 3 3 2 2 2 2 2 2 3 2 2 2 2 2 2 2 2 2 2 2 2 1 1 2 1 1 2 2 2 2 1 3 5 9 10 9 9 9 9 8 7 7
4 4 3 3 3 2 2 2 2 2 2 2 2 2 1 1 2 2 2 2 2 2 1 1 2 1 1 1 1 1 2 2 2 3 4 6 9 10 10 10 10 9 8
5 4 4 4 3 3 2 2 3 3 3 3 2 1 1 2 1 0 1 2 2 2 1 1 1 1 0 1 1 2 2 2 2 2 2 3 4 4 6 9 10 11 10
3 4 4 4 3 3 2 2 2 3 2 2 2 2 2 2 2 2 2 2 2 2 2 1 1 1 1 1 1 2 2 1 2 1 1 3 3 4 4 5 9 12 12
4 3 3 3 3 2 2 1 2 3 2 1 1 2 2 1 1 2 3 4 3 3 4 2 2 2 2 1 2 3 2 3 3 2 2 3 3 3 4 5 12 14 14
3 3 3 3 2 2 2 2 2 3 2 1 1 1 1 1 2 2 2 2 3 4 5 4 3 3 2 2 3 3 4 3 3 2 2 3 3 3 3 3 9 13 13
3 3 2 2 2 2 2 2 2 3 2 2 2 1 1 1 2 2 2 3 3 3 4 5 5 5 5 4 3 1 2 2 3 2 2 2 2 2 2 3 5 11 12
3 3 2 2 2 2 2 2 2 3 2 2 1 1 1 1 2 1 2 3 4 4 3 3 4 4 5 5 5 4 3 3 3 3 1 1 2 1 2 2 3 5 6
Wind_Direction
111 105 96 108 129 135 148 158 143 149 156 149 155 128 97 107 118 125 140 154 155 158 163 169 176 183 188 193 198 201 205 209 212 210 207 208 207 204 203 202 201 201 202
108 114 122 119 132 134 132 138 143 149 141 127 117 111 105 116 122 138 147 158 164 166 171 176 179 182 188 193 199 206 211 214 215 214 213 214 214 211 208 208 209 209 207
123 136 145 149 156 167 151 132 122 156 153 148 144 146 135 161 151 151 151 160 170 179 182 182 185 191 197 203 208 212 212 216 216 217 218 217 215 215 212 207 211 213 212
143 154 147 164 182 174 147 144 162 170 117 138 140 178 163 172 179 177 168 171 175 177 184 187 189 194 201 208 215 217 218 220 218 217 220 218 214 210 207 207 213 212 210
146 156 152 160 196 164 163 166 131 135 162 174 179 190 189 190 187 182 177 179 179 170 171 183 191 195 201 209 217 224 227 223 219 220 222 217 212 207 204 208 213 216 213
157 166 169 173 171 131 154 138 150 176 197 218 216 181 204 192 186 183 187 176 171 175 168 168 181 196 200 205 215 228 235 229 223 224 225 219 215 210 208 210 216 219 216
157 173 165 154 173 160 160 156 172 185 194 189 192 201 238 216 190 175 177 173 174 166 161 155 171 175 184 196 205 220 226 223 222 222 226 219 215 212 210 211 216 220 219
176 187 166 193 187 155 167 178 163 223 226 166 181 169 210 266 264 185 167 179 176 164 173 169 166 170 166 165 183 205 214 214 216 217 219 220 216 214 216 215 218 215 216
184 183 180 209 178 174 175 185 181 210 234 231 214 199 213 177 260 222 187 169 164 174 189 165 173 173 171 158 170 192 204 210 216 218 216 219 216 213 215 215 216 214 213
189 184 186 193 203 190 164 194 171 229 226 244 221 220 210 133 188 258 263 181 183 190 192 193 172 168 165 162 164 169 186 199 209 219 225 221 217 213 213 216 215 215 215
194 198 183 184 196 203 176 214 160 228 246 270 270 227 216 191 217 220 235 227 230 196 182 182 172 170 167 166 168 171 175 186 196 207 218 222 218 210 208 214 221 223 220
195 194 180 181 186 199 193 214 212 223 234 265 289 294 257 216 224 238 249 235 234 223 187 171 183 183 179 167 170 162 170 180 189 200 209 213 212 208 208 211 220 222 219
189 183 183 177 185 194 204 210 208 238 237 244 254 270 281 257 231 241 262 270 265 248 204 185 194 182 176 149 144 159 170 175 182 188 198 207 208 204 203 210 219 222 216
177 168 170 176 189 202 210 195 228 226 225 239 255 259 282 281 266 231 228 244 267 258 217 214 191 173 162 148 152 164 167 178 183 188 193 199 202 202 207 210 220 226 220
188 163 170 180 190 192 213 208 216 243 225 229 260 256 255 279 281 282 260 231 225 260 257 208 179 169 157 136 155 178 169 178 185 192 197 198 201 203 208 213 219 223 213
193 167 174 183 192 198 207 216 216 220 223 233 246 272 272 277 293 287 277 261 235 243 267 228 209 172 167 164 171 186 171 169 188 196 198 200 200 198 202 209 211 209 201
189 191 197 198 199 207 210 215 224 224 214 233 256 258 262 280 299 301 288 271 247 227 258 278 200 139 166 183 173 189 184 184 189 198 198 200 201 199 198 202 203 202 200
197 197 199 203 215 209 206 210 236 243 229 228 244 258 267 272 275 291 303 291 274 246 229 258 254 208 206 198 195 204 217 210 192 190 194 197 200 200 197 199 200 201 201
194 191 193 206 225 219 210 215 226 242 249 245 244 249 263 280 284 290 284 285 292 290 237 228 247 236 215 201 193 224 230 236 231 188 192 195 200 200 199 199 199 200 200
189 190 194 203 213 212 218 232 242 238 246 248 246 244 248 255 284 286 285 296 291 295 286 237 241 235 202 177 182 230 242 226 233 222 191 189 196 202 205 203 202 201 200
197 189 194 205 205 212 224 224 239 236 230 233 235 225 212 168 123 295 295 307 291 271 272 261 254 260 226 171 225 239 243 245 231 216 193 199 189 196 202 210 209 205 202
193 191 199 202 213 225 220 211 231 256 235 223 227 226 213 189 187 208 231 260 274 263 263 268 274 269 285 273 260 267 262 257 264 214 207 236 204 205 204 199 200 199 200
193 198 202 196 189 191 216 236 243 244 236 233 247 260 264 243 206 234 238 237 242 243 231 234 263 264 258 258 263 265 255 250 253 234 221 251 233 227 220 206 193 194 197
190 196 203 192 176 199 211 227 261 223 223 221 237 247 244 295 314 298 279 264 249 238 222 217 232 252 259 251 246 255 259 252 255 240 213 244 241 237 233 198 192 193 196
194 198 186 179 184 209 225 225 249 238 220 227 231 253 226 240 296 282 266 266 262 260 242 227 221 228 238 250 251 268 277 265 267 247 219 238 248 250 234 207 190 194 198
201 199 191 178 178 199 223 222 239 252 241 227 188 197 207 235 301 273 253 263 264 272 276 248 232 229 230 227 220 217 229 247 270 268 219 228 247 247 261 229 187 187 202